Weather History for PALH - December, 2012

Change the Weather History Date:

Monday, December 10, 2012

  Actual Average Record
Temperature  
Mean Temperature 27 °F -  
Max Temperature 28 °F 20 °F 41 °F (2011)
Min Temperature 26 °F 11 °F 1 °F (1996)
Degree Days  
Heating Degree Days 38    
Moisture  
Dew Point 25 °F    
Average Humidity 91    
Maximum Humidity 93    
Minimum Humidity 86    
Precipitation  
Precipitation 0.01 in - - ()
Sea Level Pressure  
Sea Level Pressure 29.60 in    
Wind  
Wind Speed 1 mph (North)    
Max Wind Speed 5 mph    
Max Gust Speed -    
Visibility 4 miles    
Events Snow    
Averages and records for this station are not official NWS values.
T = Trace of Precipitation, MM = Missing Value Source: NWS Daily Summary

Daily Weather History Graph

Daily Weather History Graph

Search for Another Location

Airport or City:

Trip Planner

Search our weather history database for the weather conditions in past years. The results will help you decide how hot, cold, wet, or windy it might be!

Date:

Astronomy

Dec. 10, 2012 Rise Set
Actual Time 10:03 AM AKST 3:42 PM AKST
Civil Twilight 9:02 AM AKST 4:43 PM AKST
Nautical Twilight 8:03 AM AKST 5:42 PM AKST
Astronomical Twilight 7:10 AM AKST 6:35 PM AKST
Moon 6:22 AM AKST (12/10) 2:10 PM AKST (12/10)
Length of Visible Light 7h 40m
Length of Day
5h 39m
Waning Crescent, 9% of the Moon is Illuminated
Dec 10
Waning Crescent
Dec 12
New
Dec 19
First Quarter
Dec 28
Full
Jan 4
Last Quarter

Hourly Weather History & Observations

Time (AKST) Temp. Windchill Dew Point Humidity Pressure Visibility Wind Dir Wind Speed Gust Speed Precip Events Conditions
12:01 AM 26.6 °F 22.6 °F 24.8 °F 93% 29.54 in 1.8 mi East 3.5 mph - 0.00 in Snow Light Snow
12:17 AM 26.6 °F 22.6 °F 24.8 °F 93% 29.55 in 1.8 mi SE 3.5 mph - 0.00 in Snow Light Snow
12:24 AM 26.6 °F - 24.8 °F 93% 29.55 in 2.5 mi Calm Calm - 0.00 in Snow Light Snow
12:31 AM 26.6 °F - 24.8 °F 93% 29.55 in 2.5 mi Calm Calm - 0.00 in Snow Light Snow
12:38 AM 26.6 °F 22.6 °F 24.8 °F 93% 29.55 in 5.0 mi ESE 3.5 mph - 0.01 in Snow Light Snow
12:50 AM 26.6 °F 22.6 °F 24.8 °F 93% 29.55 in 4.0 mi SE 3.5 mph - 0.01 in Snow Light Snow
12:53 AM 27.0 °F - 24.1 °F 89% 29.56 in 3.0 mi Calm Calm - 0.01 in Snow Light Snow
12:57 AM 26.6 °F - 24.8 °F 93% 29.55 in 2.5 mi Calm Calm - 0.00 in Snow Light Snow
1:08 AM 26.6 °F - 24.8 °F 93% 29.55 in 1.8 mi Calm Calm - 0.00 in Snow Light Snow
1:15 AM 26.6 °F - 24.8 °F 93% 29.55 in 2.0 mi Calm Calm - 0.00 in Snow Light Snow
1:25 AM 26.6 °F - 24.8 °F 93% 29.55 in 4.0 mi Calm Calm - 0.00 in Snow Light Snow
1:34 AM 26.6 °F - 24.8 °F 93% 29.55 in 2.5 mi Calm Calm - 0.00 in Snow Light Snow
1:40 AM 26.6 °F - 24.8 °F 93% 29.55 in 3.0 mi Calm Calm - 0.00 in Snow Light Snow
1:48 AM 26.6 °F - 24.8 °F 93% 29.55 in 6.0 mi Calm Calm - 0.00 in   Overcast
1:53 AM 27.0 °F - 25.0 °F 92% 29.56 in 7.0 mi Calm Calm - 0.00 in   Overcast
2:27 AM 28.4 °F - 26.6 °F 93% 29.55 in 3.0 mi Calm Calm - 0.00 in Snow Light Snow
2:39 AM 28.4 °F - 26.6 °F 93% 29.56 in 1.8 mi Calm Calm - 0.00 in Snow Light Snow
3:01 AM 28.4 °F - 24.8 °F 86% 29.56 in 1.8 mi Calm Calm - 0.00 in Snow Light Snow
3:53 AM 28.0 °F - 26.1 °F 92% 29.58 in 1.0 mi Calm Calm - 0.00 in Snow Light Snow
4:07 AM 28.4 °F - 26.6 °F 93% 29.57 in 1.2 mi Calm Calm - 0.00 in Snow Light Snow
4:27 AM 26.6 °F - 24.8 °F 93% 29.57 in 2.5 mi Calm Calm - 0.00 in Snow Light Snow
4:34 AM 26.6 °F - 24.8 °F 93% 29.57 in 3.0 mi Calm Calm - 0.00 in Snow Light Snow
4:53 AM 28.0 °F - 25.0 °F 88% 29.57 in 4.0 mi Calm Calm - 0.00 in Snow Light Snow
5:20 AM 26.6 °F - 24.8 °F 93% 29.56 in 7.0 mi Calm Calm - 0.00 in   Overcast
5:53 AM 27.0 °F - 25.0 °F 92% 29.56 in 6.0 mi Calm Calm - 0.00 in   Overcast
6:30 AM 26.6 °F - 24.8 °F 93% 29.55 in 5.0 mi Calm Calm - 0.00 in Snow Light Snow
6:38 AM 26.6 °F - 24.8 °F 93% 29.55 in 4.0 mi Calm Calm - 0.00 in Snow Light Snow
6:53 AM 27.0 °F - 25.0 °F 92% 29.56 in 4.0 mi Calm Calm - 0.00 in Snow Light Snow
7:53 AM 27.0 °F - 25.0 °F 92% 29.56 in 3.0 mi Calm Calm - 0.00 in Snow Light Snow
8:24 AM 28.4 °F 23.3 °F 24.8 °F 86% 29.55 in 2.5 mi NNE 4.6 mph - 0.00 in Snow Light Snow
8:32 AM 28.4 °F 23.3 °F 24.8 °F 86% 29.55 in 4.0 mi NNE 4.6 mph - 0.00 in Snow Light Snow
8:53 AM 28.0 °F - 26.1 °F 92% 29.55 in 8.0 mi Calm Calm - 0.00 in   Overcast
9:10 AM 28.4 °F 24.6 °F 24.8 °F 86% 29.55 in 1.8 mi NNE 3.5 mph - 0.00 in Snow Light Snow
9:22 AM 28.4 °F - 26.6 °F 93% 29.55 in 2.5 mi Calm Calm - 0.00 in Snow Light Snow
9:53 AM 28.0 °F - 26.1 °F 92% 29.56 in 2.5 mi Calm Calm - 0.00 in Snow Light Snow
10:08 AM 28.4 °F 24.6 °F 24.8 °F 86% 29.56 in 3.0 mi North 3.5 mph - 0.00 in Snow Light Snow
10:11 AM 28.4 °F 24.6 °F 24.8 °F 86% 29.56 in 2.5 mi North 3.5 mph - 0.00 in Snow Light Snow
10:25 AM 26.6 °F 22.6 °F 24.8 °F 93% 29.57 in 2.0 mi North 3.5 mph - 0.00 in Snow Light Snow
10:45 AM 26.6 °F 21.2 °F 24.8 °F 93% 29.57 in 3.0 mi North 4.6 mph - 0.00 in   Overcast
10:53 AM 27.0 °F 21.6 °F 25.0 °F 92% 29.57 in 4.0 mi North 4.6 mph - 0.00 in   Overcast
11:09 AM 28.4 °F 24.6 °F 24.8 °F 86% 29.57 in 9.0 mi North 3.5 mph - N/A   Overcast
11:53 AM 28.0 °F 24.2 °F 25.0 °F 88% 29.57 in 2.0 mi North 3.5 mph - 0.00 in Snow Light Snow
12:24 PM 28.4 °F - 26.6 °F 93% 29.57 in 1.5 mi Calm Calm - 0.00 in Snow Light Snow
12:45 PM 28.4 °F 23.3 °F 26.6 °F 93% 29.57 in 2.0 mi North 4.6 mph - 0.00 in Snow Light Snow
12:53 PM 28.0 °F 24.2 °F 26.1 °F 92% 29.58 in 2.0 mi North 3.5 mph - 0.00 in Snow Light Snow
1:00 PM 28.4 °F - 26.6 °F 93% 29.58 in 1.8 mi Calm Calm - 0.00 in Snow Light Snow
1:10 PM 28.4 °F 24.6 °F 26.6 °F 93% 29.58 in 2.0 mi NW 3.5 mph - 0.00 in Snow Light Snow
1:23 PM 28.4 °F - 26.6 °F 93% 29.58 in 3.0 mi Calm Calm - 0.00 in Snow Light Snow
1:31 PM 28.4 °F - 26.6 °F 93% 29.58 in 3.0 mi Calm Calm - 0.00 in Snow Light Snow
1:53 PM 28.0 °F - 25.0 °F 88% 29.58 in 10.0 mi Calm Calm - 0.00 in   Overcast
2:53 PM 28.0 °F - 25.0 °F 88% 29.59 in 2.5 mi Calm Calm - 0.00 in Snow Light Snow
3:16 PM 28.4 °F - 24.8 °F 86% 29.60 in 3.0 mi Calm Calm - 0.00 in Snow Light Snow
3:53 PM 27.0 °F 23.0 °F 24.1 °F 89% 29.60 in 10.0 mi NW 3.5 mph - 0.00 in   Overcast
4:53 PM 27.0 °F 23.0 °F 24.1 °F 89% 29.62 in 10.0 mi NW 3.5 mph - N/A   Overcast
5:53 PM 27.0 °F - 24.1 °F 89% 29.64 in 10.0 mi Calm Calm - N/A   Overcast
6:53 PM 27.0 °F 21.6 °F 24.1 °F 89% 29.67 in 10.0 mi NW 4.6 mph - N/A   Overcast
7:08 PM 26.6 °F 21.2 °F 24.8 °F 93% 29.67 in 10.0 mi NW 4.6 mph - N/A   Overcast
7:22 PM 26.6 °F - 24.8 °F 93% 29.67 in 7.0 mi Calm Calm - N/A   Overcast
7:53 PM 27.0 °F - 24.1 °F 89% 29.69 in 8.0 mi Calm Calm - N/A   Overcast
8:28 PM 26.6 °F - 24.8 °F 93% 29.70 in 8.0 mi Calm Calm - N/A   Overcast
8:53 PM 27.0 °F - 25.0 °F 92% 29.71 in 4.0 mi Calm Calm - N/A   Overcast
9:22 PM 26.6 °F - 24.8 °F 93% 29.71 in 9.0 mi Calm Calm - N/A   Overcast
9:53 PM 27.0 °F 23.0 °F 25.0 °F 92% 29.72 in 9.0 mi SSE 3.5 mph - N/A   Overcast
10:08 PM 26.6 °F - 24.8 °F 93% 29.74 in 10.0 mi Calm Calm - N/A   Overcast
10:53 PM 28.0 °F - 26.1 °F 92% 29.75 in 4.0 mi Calm Calm - N/A   Overcast
11:14 PM 28.4 °F - 26.6 °F 93% 29.76 in 2.0 mi Calm Calm - 0.00 in Snow Light Snow
11:21 PM 28.4 °F - 26.6 °F 93% 29.76 in 1.0 mi Calm Calm - 0.00 in Snow Light Snow
11:46 PM 28.4 °F 24.6 °F 24.8 °F 86% 29.78 in 3.0 mi WNW 3.5 mph - 0.00 in Snow Light Snow
11:53 PM 28.0 °F - 26.1 °F 92% 29.78 in 4.0 mi Calm Calm - 0.00 in   Overcast